Weather History for PAWG - February, 2013

Change the Weather History Date:

Thursday, February 7, 2013

  Actual Average Record
Temperature  
Mean Temperature 36 °F -  
Max Temperature 39 °F 39 °F 51 °F (1977)
Min Temperature 32 °F 29 °F 8 °F (1951)
Degree Days  
Heating Degree Days 30    
Moisture  
Dew Point 31 °F    
Average Humidity 81    
Maximum Humidity 93    
Minimum Humidity 70    
Precipitation  
Precipitation 0.05 in - - ()
Sea Level Pressure  
Sea Level Pressure 29.93 in    
Wind  
Wind Speed 4 mph (ESE)    
Max Wind Speed 15 mph    
Max Gust Speed 22 mph    
Visibility 10 miles    
Events      
Averages and records for this station are not official NWS values.
T = Trace of Precipitation, MM = Missing Value Source: NWS Daily Summary

Daily Weather History Graph

Daily Weather History Graph

Search for Another Location

Airport or City:

Trip Planner

Search our weather history database for the weather conditions in past years. The results will help you decide how hot, cold, wet, or windy it might be!

Date:

Astronomy

Feb. 07, 2013 Rise Set
Actual Time 7:33 AM AKST 4:35 PM AKST
Civil Twilight 6:52 AM AKST 5:15 PM AKST
Nautical Twilight 6:07 AM AKST 6:00 PM AKST
Astronomical Twilight 5:24 AM AKST 6:44 PM AKST
Moon 5:37 AM AKST (2/7) 1:51 PM AKST (2/7)
Length of Visible Light 10h 23m
Length of Day
9h 02m
Waning Crescent, 8% of the Moon is Illuminated
Feb 7
Waning Crescent
Feb 9
New
Feb 17
First Quarter
Feb 25
Full
Mar 4
Last Quarter

Hourly Weather History & Observations

Time (AKST) Temp. Windchill Dew Point Humidity Pressure Visibility Wind Dir Wind Speed Gust Speed Precip Events Conditions
12:16 AM 33.8 °F - 24.8 °F 70% 29.79 in 10.0 mi Calm Calm - N/A   Clear
12:36 AM 33.8 °F 30.8 °F 26.6 °F 75% 29.79 in 10.0 mi NW 3.5 mph - N/A   Scattered Clouds
12:56 AM 33.8 °F 29.6 °F 26.6 °F 75% 29.80 in 10.0 mi NW 4.6 mph - N/A   Mostly Cloudy
1:16 AM 35.6 °F 31.7 °F 26.6 °F 70% 29.80 in 10.0 mi NNW 4.6 mph - N/A   Overcast
1:36 AM 35.6 °F 30.7 °F 26.6 °F 70% 29.80 in 10.0 mi NNW 5.8 mph - N/A   Overcast
1:56 AM 33.8 °F 27.7 °F 26.6 °F 75% 29.81 in 10.0 mi NW 6.9 mph - N/A   Overcast
2:16 AM 33.8 °F - 24.8 °F 70% 29.81 in 10.0 mi Calm Calm - N/A   Overcast
2:36 AM 32.0 °F 27.5 °F 24.8 °F 75% 29.81 in 10.0 mi SW 4.6 mph - N/A   Overcast
2:56 AM 32.0 °F 27.5 °F 24.8 °F 75% 29.81 in 10.0 mi WNW 4.6 mph - N/A   Overcast
3:16 AM 32.0 °F 28.7 °F 24.8 °F 75% 29.81 in 10.0 mi South 3.5 mph - N/A   Overcast
3:36 AM 33.8 °F - 26.6 °F 75% 29.81 in 10.0 mi Calm Calm - N/A   Overcast
3:56 AM 33.8 °F - 26.6 °F 75% 29.82 in 10.0 mi Calm Calm - N/A   Overcast
4:16 AM 33.8 °F 29.6 °F 26.6 °F 75% 29.83 in 10.0 mi NNW 4.6 mph - N/A   Overcast
4:36 AM 33.8 °F - 26.6 °F 75% 29.83 in 10.0 mi Calm Calm - N/A   Overcast
4:56 AM 33.8 °F 29.6 °F 28.4 °F 81% 29.82 in 10.0 mi ESE 4.6 mph - N/A   Overcast
5:16 AM 32.0 °F 26.4 °F 26.6 °F 80% 29.83 in 10.0 mi SSE 5.8 mph - N/A   Overcast
5:36 AM 33.8 °F 30.8 °F 28.4 °F 81% 29.84 in 10.0 mi SSE 3.5 mph - N/A   Overcast
5:56 AM 33.8 °F 30.8 °F 28.4 °F 81% 29.85 in 10.0 mi SSE 3.5 mph - N/A   Overcast
6:16 AM 33.8 °F - 28.4 °F 81% 29.85 in 10.0 mi Calm Calm - N/A   Overcast
6:36 AM 33.8 °F - 28.4 °F 81% 29.86 in 10.0 mi Calm Calm - N/A   Overcast
6:56 AM 33.8 °F - 28.4 °F 81% 29.87 in 10.0 mi Calm Calm - N/A   Overcast
7:16 AM 35.6 °F 31.7 °F 30.2 °F 81% 29.87 in 10.0 mi East 4.6 mph - N/A   Overcast
7:36 AM 33.8 °F - 28.4 °F 81% 29.88 in 10.0 mi Calm Calm - N/A   Overcast
7:56 AM 35.6 °F 30.7 °F 30.2 °F 81% 29.88 in 10.0 mi East 5.8 mph - N/A   Overcast
8:16 AM 35.6 °F 32.8 °F 30.2 °F 81% 29.89 in 10.0 mi ESE 3.5 mph - N/A   Overcast
8:36 AM 35.6 °F 31.7 °F 30.2 °F 81% 29.90 in 10.0 mi ESE 4.6 mph - N/A   Overcast
8:56 AM 35.6 °F 29.9 °F 30.2 °F 81% 29.89 in 10.0 mi East 6.9 mph - N/A   Overcast
9:16 AM 35.6 °F 28.0 °F 30.2 °F 81% 29.90 in 10.0 mi East 10.4 mph - N/A   Overcast
9:36 AM 35.6 °F 28.6 °F 30.2 °F 81% 29.90 in 10.0 mi ESE 9.2 mph - N/A   Overcast
9:56 AM 35.6 °F 32.8 °F 30.2 °F 81% 29.91 in 7.0 mi ESE 3.5 mph - N/A   Overcast
10:16 AM 35.6 °F 31.7 °F 30.2 °F 81% 29.91 in 7.0 mi East 4.6 mph - N/A   Overcast
10:36 AM 37.4 °F - 30.2 °F 75% 29.92 in 7.0 mi Calm Calm - N/A   Overcast
10:56 AM 37.4 °F 33.8 °F 30.2 °F 75% 29.93 in 10.0 mi NW 4.6 mph - N/A   Overcast
11:16 AM 37.4 °F 32.8 °F 33.8 °F 87% 29.93 in 10.0 mi NE 5.8 mph - N/A   Overcast
11:36 AM 37.4 °F - 32.0 °F 81% 29.93 in 10.0 mi Calm Calm - N/A   Overcast
11:56 AM 37.4 °F - 33.8 °F 87% 29.93 in 10.0 mi Calm Calm - 0.01 in   Overcast
12:16 PM 37.4 °F - 32.0 °F 81% 29.94 in 10.0 mi Calm Calm - N/A   Overcast
12:36 PM 37.4 °F - 33.8 °F 87% 29.95 in 10.0 mi Calm Calm - N/A   Overcast
12:56 PM 37.4 °F 34.9 °F 32.0 °F 81% 29.96 in 10.0 mi North 3.5 mph - N/A   Overcast
1:16 PM 37.4 °F 32.1 °F 33.8 °F 87% 29.96 in 10.0 mi North 6.9 mph - N/A   Overcast
1:36 PM 35.6 °F 31.7 °F 30.2 °F 81% 29.97 in 10.0 mi North 4.6 mph - N/A   Overcast
1:56 PM 35.6 °F 32.8 °F 33.8 °F 93% 29.97 in 10.0 mi ENE 3.5 mph - N/A   Overcast
2:16 PM 37.4 °F 33.8 °F 33.8 °F 87% 29.97 in 10.0 mi ESE 4.6 mph - N/A   Overcast
2:36 PM 37.4 °F - 33.8 °F 87% 29.98 in 10.0 mi Calm Calm - N/A   Overcast
2:56 PM 37.4 °F 32.8 °F 33.8 °F 87% 29.99 in 10.0 mi ESE 5.8 mph - N/A   Overcast
3:16 PM 39.2 °F 33.6 °F 33.8 °F 81% 29.99 in 10.0 mi ESE 8.1 mph - N/A   Overcast
3:36 PM 37.4 °F 32.1 °F 33.8 °F 87% 29.99 in 10.0 mi East 6.9 mph - N/A   Overcast
3:56 PM 37.4 °F 31.4 °F 33.8 °F 87% 30.00 in 10.0 mi ESE 8.1 mph - N/A   Overcast
4:16 PM 37.4 °F 32.1 °F 33.8 °F 87% 30.01 in 10.0 mi SSE 6.9 mph - N/A   Overcast
4:36 PM 37.4 °F 33.8 °F 33.8 °F 87% 30.01 in 10.0 mi ESE 4.6 mph - N/A   Overcast
4:56 PM 37.4 °F 33.8 °F 33.8 °F 87% 30.02 in 10.0 mi SE 4.6 mph - N/A   Overcast
5:16 PM 37.4 °F 34.9 °F 33.8 °F 87% 30.03 in 10.0 mi East 3.5 mph - N/A   Overcast
5:36 PM 37.4 °F - 33.8 °F 87% 30.03 in 10.0 mi Calm Calm - N/A   Overcast
5:56 PM 37.4 °F 33.8 °F 33.8 °F 87% 30.04 in 10.0 mi SSE 4.6 mph - N/A   Overcast
6:16 PM 37.4 °F 33.8 °F 33.8 °F 87% 30.04 in 10.0 mi SE 4.6 mph - N/A   Overcast
6:36 PM 37.4 °F 32.8 °F 33.8 °F 87% 30.04 in 10.0 mi ESE 5.8 mph - N/A   Overcast
6:56 PM 37.4 °F 34.9 °F 33.8 °F 87% 30.04 in 10.0 mi SSW 3.5 mph - N/A   Overcast
7:16 PM 37.4 °F 33.8 °F 32.0 °F 81% 30.04 in 10.0 mi SE 4.6 mph - N/A   Overcast
7:36 PM 37.4 °F 31.4 °F 32.0 °F 81% 30.03 in 10.0 mi ESE 8.1 mph - N/A   Overcast
7:56 PM 37.4 °F 31.4 °F 33.8 °F 87% 30.03 in 10.0 mi ESE 8.1 mph - N/A   Mostly Cloudy
8:16 PM 37.4 °F 31.4 °F 33.8 °F 87% 30.03 in 10.0 mi East 8.1 mph - N/A   Mostly Cloudy
8:36 PM 37.4 °F - 33.8 °F 87% 30.04 in 10.0 mi Calm Calm - 0.01 in   Mostly Cloudy
8:56 PM 37.4 °F 34.9 °F 33.8 °F 87% 30.03 in 10.0 mi ESE 3.5 mph - 0.01 in   Overcast
9:16 PM 37.4 °F - 32.0 °F 81% 30.03 in 10.0 mi Calm Calm - N/A   Overcast
9:56 PM 37.4 °F - 30.2 °F 75% 30.03 in 10.0 mi Calm Calm - 0.01 in   Overcast
10:16 PM 37.4 °F 29.3 °F 32.0 °F 81% 30.02 in 10.0 mi ESE 12.7 mph 17.3 mph N/A   Overcast
10:36 PM 37.4 °F 29.8 °F 33.8 °F 87% 30.02 in 10.0 mi ESE 11.5 mph 20.7 mph N/A   Overcast
10:56 PM 37.4 °F 28.5 °F 32.0 °F 81% 30.02 in 10.0 mi ESE 15.0 mph 19.6 mph N/A   Overcast
11:16 PM 37.4 °F 28.9 °F 32.0 °F 81% 30.02 in 10.0 mi East 13.8 mph 21.9 mph 0.01 in   Overcast
11:36 PM 37.4 °F 28.5 °F 33.8 °F 87% 30.01 in 10.0 mi East 15.0 mph 20.7 mph 0.01 in   Overcast
11:56 PM 37.4 °F 28.9 °F 32.0 °F 81% 30.02 in 10.0 mi ESE 13.8 mph - 0.02 in   Overcast